Wind_Speed
35 36 37 31 30 27 20 21 25 26 25 35 31 30 28 28 28 35 46 50 52 56 57 65 62 65 64 65 61 61 72 58 66 57 61 59 59 60 61 69 65 62 55 53
38 39 28 30 34 33 37 30 26 27 27 32 29 27 23 23 23 23 32 39 42 48 51 54 64 65 64 64 61 62 69 80 63 69 69 53 67 63 61 65 70 73 66 59
34 26 30 36 36 36 39 37 30 26 20 32 26 23 17 20 24 14 13 12 24 27 32 35 51 64 64 64 59 65 69 68 74 64 55 61 66 69 68 76 61 68 62 59
33 31 36 38 37 35 36 33 32 33 31 19 11 16 15 16 18 14 7 5 10 12 14 26 41 49 58 62 61 65 62 69 67 63 69 63 66 73 71 75 67 55 57 58
34 36 36 39 37 36 32 32 33 33 33 23 17 14 10 21 17 19 7 7 12 14 16 20 28 29 41 47 48 56 63 61 46 31 45 53 39 41 32 33 28 34 35 36
34 34 33 35 35 34 30 32 35 34 26 24 18 18 11 17 13 13 15 12 12 15 18 24 29 34 32 27 36 36 35 26 28 37 28 21 22 23 25 26 32 37 40 42
38 35 34 36 35 34 34 35 27 24 25 24 18 20 22 24 14 13 13 19 19 19 20 25 19 24 21 25 20 18 21 21 22 23 17 21 26 29 33 35 36 38 43 46
37 39 37 40 38 32 32 32 27 23 19 19 20 22 20 22 29 21 17 13 17 19 20 22 22 21 21 21 23 25 25 24 21 22 25 28 31 34 38 39 39 41 45 46
29 32 28 36 35 32 27 32 28 28 28 23 26 25 32 31 22 24 21 18 18 23 25 26 24 24 26 27 24 29 30 30 29 31 33 34 36 39 41 43 41 44 47 51
28 26 25 22 29 34 33 21 27 30 27 27 28 19 20 22 28 32 29 25 24 25 29 31 32 31 31 33 33 30 33 35 37 38 39 41 42 40 40 42 44 49 51 54
34 29 31 26 34 32 34 31 26 27 32 26 32 18 27 19 25 29 22 34 31 32 34 35 37 35 35 36 36 38 40 41 42 44 46 45 44 43 45 47 49 51 53 56
40 25 28 26 26 29 28 30 29 27 30 41 29 31 32 35 12 25 21 31 28 29 32 34 36 40 42 44 44 45 46 46 46 45 43 42 45 48 48 48 50 51 54 56
33 29 25 34 33 30 37 30 28 31 38 33 33 31 39 30 25 28 25 31 32 30 32 33 33 35 36 36 38 40 42 44 44 44 45 47 51 48 47 48 50 50 51 52
34 35 35 31 23 24 29 25 16 21 32 26 31 35 37 31 34 38 29 31 40 38 37 37 39 39 40 40 39 40 43 46 46 46 49 50 50 51 51 49 49 49 49 50
37 35 25 33 30 25 24 27 30 30 28 22 20 16 18 15 17 29 32 31 32 31 32 35 36 35 41 40 40 41 42 44 45 50 52 53 53 51 51 50 49 50 50 50
40 38 35 27 29 29 28 26 26 29 22 22 22 23 26 28 29 32 29 28 29 29 29 30 35 41 42 43 40 39 43 43 41 44 46 48 49 50 49 46 46 46 46 45
38 36 32 30 30 27 33 32 28 25 28 26 21 19 24 33 39 32 31 28 29 29 27 29 33 35 40 40 40 46 42 44 45 47 47 48 47 45 44 44 41 42 40 41
35 32 31 26 24 18 19 21 23 27 28 26 25 25 28 27 30 30 31 31 31 30 30 32 33 34 36 39 40 40 40 42 45 46 46 46 45 43 41 39 37 37 37 38
46 39 28 23 25 25 15 17 21 19 23 23 22 24 25 34 28 29 29 31 32 32 32 31 31 32 32 33 34 36 38 39 40 41 42 43 42 39 35 32 34 34 35 39
30 30 24 21 18 15 25 18 20 21 24 22 24 24 26 26 28 29 28 30 29 28 27 28 27 27 26 27 27 28 30 33 35 38 39 37 35 31 29 29 30 32 36 38
19 20 18 18 18 20 21 17 18 20 24 24 24 23 25 25 28 29 27 26 23 24 25 27 28 28 28 29 30 32 34 35 36 37 36 32 28 28 25 26 30 32 36 42
22 20 20 19 19 21 13 17 19 20 23 21 19 19 21 22 23 24 23 23 24 26 27 29 30 32 34 35 35 35 35 35 37 35 30 28 24 22 23 26 30 34 38 39
23 23 21 18 18 16 16 16 18 18 17 16 17 17 18 18 19 20 21 22 23 24 25 26 28 29 30 31 32 33 34 37 34 29 26 20 21 20 22 26 30 33 36 38
23 21 19 16 15 15 15 17 18 17 16 17 16 15 16 17 19 20 21 22 25 27 30 31 31 32 30 30 32 33 33 30 25 21 20 24 19 19 22 25 28 31 34 39
24 22 19 16 15 15 15 17 17 17 16 15 14 15 16 19 20 21 22 23 25 27 30 32 32 29 29 32 30 25 19 17 18 19 22 16 14 17 21 25 29 31 37 36
25 23 20 16 16 16 17 17 15 15 14 15 15 16 18 20 23 23 23 24 25 29 29 25 24 24 24 24 18 17 16 15 12 14 9 8 12 16 20 25 30 36 36 34
Wind_Direction
244 243 243 245 243 234 219 234 222 238 228 251 256 252 239 235 242 250 254 254 249 247 240 240 235 237 245 239 237 247 230 233 244 251 244 255 261 268 273 276 266 259 254 254
241 246 243 236 231 224 221 210 213 219 233 247 246 245 230 236 236 239 249 249 247 242 240 233 231 236 237 244 238 235 246 241 227 249 243 261 259 265 269 267 270 260 257 249
242 238 230 230 228 227 227 228 226 225 243 244 243 247 251 246 241 239 248 254 238 236 238 233 237 230 238 239 240 247 246 249 250 236 243 260 260 260 260 260 260 257 253 254
233 221 225 229 230 231 231 228 223 224 222 235 249 246 256 260 262 255 248 140 193 229 239 229 240 247 237 241 250 250 240 244 255 254 253 255 254 261 254 256 257 253 255 258
225 220 223 228 230 230 223 221 220 227 232 232 232 250 224 248 280 286 250 215 192 207 216 232 241 249 240 242 254 259 254 250 238 246 251 249 252 251 248 254 261 263 266 272
221 219 220 225 229 228 218 220 220 224 226 237 228 221 232 236 236 247 248 226 213 215 226 235 242 256 259 249 253 242 254 244 253 264 278 277 271 269 274 273 261 265 267 269
217 208 221 221 222 224 219 218 221 225 225 233 229 228 227 237 218 241 209 228 236 229 225 234 234 241 243 255 249 248 254 249 249 257 261 265 267 271 271 268 266 269 270 270
214 215 215 218 222 223 224 225 215 218 227 236 232 222 220 244 249 242 246 233 234 218 219 225 225 238 245 244 244 240 247 254 254 258 268 270 270 268 267 266 268 267 269 270
213 217 229 223 220 213 219 222 215 204 219 220 206 209 230 239 236 235 240 245 233 221 223 234 238 242 258 262 249 240 248 255 261 268 273 270 274 269 268 270 267 267 267 268
199 222 208 231 214 217 207 222 227 210 223 217 243 208 207 236 246 246 247 235 234 241 242 244 245 249 254 255 261 259 252 255 258 263 267 271 268 264 263 265 270 270 273 274
195 201 209 212 213 208 207 209 208 218 219 232 210 219 232 245 229 261 243 242 242 246 248 250 253 254 253 255 257 258 257 258 259 262 266 266 261 264 268 270 272 274 275 277
193 199 207 206 229 211 214 222 213 218 217 220 215 232 226 221 168 217 253 260 244 248 249 250 251 252 253 255 258 261 263 266 269 269 268 263 265 263 269 273 274 276 277 279
188 190 212 186 198 210 209 209 214 220 222 222 212 218 242 236 242 253 249 258 258 249 248 246 248 250 251 253 255 256 258 259 260 261 260 261 265 268 275 279 280 282 281 280
201 198 202 199 214 229 216 216 216 237 234 218 233 237 236 235 233 243 244 233 263 258 252 249 250 253 255 255 256 257 255 256 255 258 259 265 269 271 275 277 277 278 278 278
196 198 202 202 210 221 213 208 220 219 232 228 228 273 237 212 255 255 255 256 258 256 251 249 247 247 253 250 263 263 262 261 261 259 261 265 269 272 275 276 277 278 279 281
196 198 193 209 221 211 221 220 215 216 223 224 225 222 239 244 259 266 255 253 259 261 260 257 252 253 257 260 262 264 264 263 263 265 267 269 273 275 278 279 279 280 283 282
195 189 196 213 215 221 220 222 224 216 231 228 228 226 234 250 251 254 259 267 270 270 272 267 263 264 260 266 256 265 265 265 269 272 274 275 276 279 281 282 283 283 283 284
195 199 210 219 221 229 210 217 215 214 222 230 233 237 246 250 256 254 264 266 271 277 275 272 269 266 263 264 265 267 268 269 270 272 275 277 280 284 284 284 282 282 284 287
204 200 206 192 214 222 220 208 218 223 234 238 242 242 243 248 265 264 262 270 274 275 275 274 274 273 272 272 272 271 271 272 275 277 280 281 283 284 283 280 281 283 288 292
184 188 190 187 199 211 230 221 229 234 246 241 245 249 253 258 256 265 270 269 271 270 270 270 271 271 270 270 272 274 277 279 281 282 284 287 285 282 277 278 281 287 291 294
194 193 195 205 214 225 234 234 240 239 247 247 246 249 254 260 264 270 270 271 268 265 267 271 272 272 271 272 274 275 279 280 281 285 286 282 276 276 275 279 285 288 293 297
191 204 206 210 213 233 238 239 238 241 241 250 251 255 259 262 263 264 266 265 268 272 275 276 276 274 273 273 274 276 278 281 284 280 274 270 270 270 275 281 286 291 298 305
196 199 204 210 225 237 241 238 234 239 243 247 255 260 264 266 265 263 261 263 267 273 278 281 281 279 279 277 274 274 278 282 279 272 266 262 263 269 277 286 291 299 304 310
198 201 208 216 230 235 234 238 238 236 242 250 259 264 262 263 263 266 268 272 274 277 279 280 279 274 274 274 276 280 282 277 271 261 260 253 253 276 286 290 300 306 314 316
198 203 208 218 228 231 229 232 233 234 243 249 263 268 272 273 274 273 273 276 280 282 285 284 280 276 277 280 283 278 268 264 268 263 253 236 270 281 292 304 309 319 319 319
198 207 210 218 229 228 229 233 241 244 249 258 265 274 280 285 284 280 279 283 287 293 293 287 284 284 282 280 271 266 263 269 268 271 244 267 280 293 308 315 323 322 329 326
Height
5718 5720 5722 5728 5732 5736 5742 5748 5748 5749 5751 5749 5754 5756 5760 5760 5761 5759 5758 5759 5763 5764 5770 5773 5779 5777 5782 5788 5793 5796 5795 5799 5804 5808 5813 5818 5818 5817 5817 5815 5819 5819 5827 5826
5707 5710 5719 5720 5722 5726 5729 5734 5739 5742 5743 5744 5748 5751 5753 5754 5755 5755 5752 5751 5751 5754 5757 5763 5767 5769 5779 5776 5786 5790 5791 5790 5792 5799 5803 5808 5808 5811 5810 5810 5813 5813 5813 5812
5699 5708 5708 5709 5713 5717 5721 5726 5732 5736 5739 5738 5743 5746 5748 5748 5749 5748 5746 5743 5743 5746 5750 5757 5758 5765 5770 5772 5778 5782 5784 5790 5791 5788 5792 5797 5799 5803 5802 5802 5802 5801 5801 5801
5690 5696 5697 5701 5707 5711 5715 5721 5726 5729 5732 5737 5742 5744 5746 5743 5741 5742 5741 5737 5741 5746 5748 5754 5755 5755 5761 5764 5762 5768 5773 5777 5778 5780 5784 5787 5787 5789 5791 5790 5790 5790 5790 5789
5682 5686 5689 5693 5699 5704 5711 5715 5720 5723 5726 5729 5735 5739 5743 5740 5738 5737 5736 5737 5739 5743 5746 5749 5747 5748 5753 5756 5758 5759 5765 5769 5767 5770 5772 5772 5774 5776 5777 5777 5780 5780 5782 5782
5673 5680 5684 5687 5693 5698 5706 5710 5712 5716 5721 5725 5730 5736 5741 5736 5736 5737 5735 5734 5738 5741 5744 5745 5743 5744 5750 5751 5755 5758 5761 5759 5759 5762 5762 5766 5768 5769 5769 5769 5771 5773 5774 5775
5663 5670 5675 5680 5686 5690 5697 5702 5708 5714 5717 5721 5728 5731 5734 5728 5727 5730 5731 5733 5732 5735 5737 5736 5741 5742 5744 5746 5747 5750 5753 5755 5756 5757 5759 5762 5762 5762 5762 5764 5763 5764 5764 5764
5655 5662 5667 5671 5679 5687 5691 5696 5704 5710 5716 5720 5723 5722 5728 5722 5721 5724 5725 5727 5727 5730 5731 5735 5738 5740 5742 5743 5745 5746 5748 5750 5751 5752 5754 5755 5756 5756 5757 5757 5756 5755 5755 5753
5651 5657 5663 5666 5673 5681 5687 5687 5698 5703 5705 5708 5707 5716 5715 5718 5717 5720 5721 5723 5725 5726 5729 5730 5733 5735 5737 5739 5741 5743 5744 5744 5746 5747 5748 5748 5749 5749 5747 5747 5745 5744 5743 5741
5647 5654 5658 5661 5666 5672 5678 5689 5691 5694 5700 5703 5706 5708 5711 5708 5712 5715 5716 5718 5720 5722 5723 5726 5727 5729 5731 5733 5734 5735 5738 5740 5740 5740 5739 5739 5738 5738 5737 5736 5735 5733 5732 5732
5640 5646 5652 5657 5657 5665 5671 5677 5682 5691 5694 5695 5700 5701 5698 5703 5707 5708 5708 5709 5713 5715 5716 5718 5720 5722 5724 5725 5726 5727 5728 5729 5730 5730 5730 5729 5729 5727 5727 5725 5724 5722 5720 5718
5630 5638 5642 5652 5658 5662 5670 5672 5679 5683 5686 5688 5693 5696 5694 5701 5693 5701 5705 5701 5705 5706 5708 5709 5711 5712 5714 5715 5717 5718 5718 5717 5717 5717 5718 5719 5719 5718 5717 5715 5714 5712 5709 5706
5623 5630 5637 5641 5646 5653 5659 5664 5672 5677 5675 5681 5680 5687 5685 5690 5694 5696 5699 5696 5698 5699 5701 5702 5704 5704 5705 5707 5708 5709 5709 5709 5709 5711 5711 5711 5710 5707 5705 5703 5701 5698 5696 5693
5620 5627 5633 5640 5644 5650 5654 5658 5662 5666 5664 5671 5677 5682 5684 5684 5687 5690 5691 5690 5689 5690 5692 5693 5695 5697 5698 5699 5699 5699 5700 5699 5700 5700 5699 5698 5697 5696 5694 5692 5690 5687 5684 5681
5613 5620 5628 5633 5641 5645 5649 5656 5658 5662 5666 5669 5673 5673 5674 5670 5675 5680 5681 5681 5681 5681 5682 5684 5685 5688 5688 5689 5689 5689 5689 5689 5689 5688 5688 5686 5686 5684 5682 5680 5678 5674 5671 5668
5608 5615 5625 5627 5633 5639 5644 5648 5651 5656 5661 5663 5669 5670 5669 5672 5671 5672 5672 5675 5674 5674 5674 5676 5676 5677 5678 5679 5679 5679 5678 5678 5677 5677 5676 5674 5673 5671 5669 5667 5665 5662 5658 5655
5605 5614 5618 5625 5630 5634 5638 5642 5647 5652 5656 5658 5663 5667 5670 5667 5665 5666 5666 5667 5667 5666 5667 5668 5667 5667 5668 5668 5667 5667 5666 5666 5666 5665 5663 5662 5661 5660 5657 5654 5651 5648 5645 5642
5602 5610 5616 5621 5626 5630 5632 5637 5641 5645 5649 5651 5654 5657 5658 5659 5658 5660 5660 5659 5659 5660 5659 5658 5658 5658 5658 5657 5657 5657 5656 5655 5655 5654 5652 5650 5649 5647 5644 5641 5638 5636 5633 5630
5599 5605 5613 5617 5620 5624 5630 5633 5636 5640 5642 5644 5647 5649 5651 5649 5652 5652 5653 5652 5652 5651 5650 5650 5649 5649 5648 5648 5647 5646 5646 5645 5644 5642 5640 5638 5637 5635 5632 5630 5628 5626 5623 5620
5593 5602 5606 5611 5617 5621 5622 5630 5632 5635 5635 5638 5640 5642 5642 5644 5644 5644 5646 5644 5644 5643 5642 5642 5641 5640 5640 5639 5638 5637 5636 5634 5633 5631 5629 5627 5625 5623 5622 5621 5619 5617 5615 5612
5591 5597 5604 5609 5614 5616 5619 5624 5626 5629 5632 5631 5633 5634 5636 5638 5637 5637 5638 5637 5636 5636 5636 5635 5634 5633 5632 5631 5630 5629 5627 5625 5623 5621 5619 5618 5616 5616 5615 5613 5611 5610 5607 5603
5591 5597 5601 5605 5610 5613 5616 5619 5622 5623 5623 5625 5628 5629 5630 5631 5631 5631 5630 5631 5630 5629 5628 5627 5625 5624 5623 5621 5620 5619 5617 5615 5614 5612 5611 5610 5609 5609 5608 5607 5605 5602 5598 5593
5589 5595 5600 5604 5607 5610 5612 5614 5616 5617 5619 5621 5623 5624 5624 5625 5625 5625 5624 5624 5624 5623 5621 5619 5617 5615 5614 5612 5611 5610 5608 5607 5605 5603 5603 5603 5603 5603 5602 5600 5598 5593 5589 5582
5588 5594 5597 5601 5604 5606 5608 5610 5611 5613 5616 5617 5619 5619 5620 5620 5620 5620 5620 5619 5618 5617 5615 5612 5610 5608 5606 5604 5602 5601 5599 5597 5596 5596 5596 5597 5597 5597 5596 5593 5590 5586 5579 5572
5587 5592 5595 5598 5600 5604 5605 5606 5608 5611 5612 5614 5614 5615 5615 5615 5615 5615 5614 5613 5611 5610 5607 5604 5601 5599 5598 5595 5593 5592 5591 5591 5591 5591 5590 5589 5591 5591 5590 5586 5582 5577 5570 5563
5584 5589 5593 5596 5598 5600 5602 5603 5605 5606 5608 5609 5609 5609 5609 5609 5608 5608 5607 5606 5604 5602 5598 5596 5593 5591 5590 5588 5587 5587 5586 5586 5585 5585 5584 5586 5587 5586 5583 5579 5573 5567 5562 5554